Regional Weather Roundup
Issued by NWS

Home | Current Version | Previous Version | Text Only | Print | Product List | Glossary On
Versions: 1 2 3 4 5 6 7 8 9 10 11 12 13 14 15 16 17 18 19 20 21 22 23 24 25 26 27 28 29 30 31 32 33 34 35 36 37 38 39 40 41 42 43 44 45 46 47 48 49 50
924
ASUS44 KJAN 261910
RWRMS

MISSISSIPPI HOURLY WEATHER ROUNDUP
NATIONAL WEATHER SERVICE JACKSON MS
100 PM CST WED NOV 26 2014

NOTE: "FAIR: INDICATES FEW OR NO CLOUDS BELOW 12,000 FEET WITH NO
SIGNIFICANT WEATHER AND/OR OBSTRUCTIONS TO VISIBILITY.

MSZ001>002-007>008-010>013-018>021-025>028-034>036-262000-
NORTHWEST MISSISSIPPI

CITY           SKY/WX    TMP DP  RH WIND       PRES   REMARKS
CLARKSDALE     FAIR      54  39  58 S14       29.97F
CLEVELAND      MOCLDY    54  44  67 S13       29.99F
GREENWOOD      PTSUNNY   58  34  40 S16       30.02F
GREENVILLE     CLOUDY    60  35  39 SW20G29   29.99F
GRENADA        CLOUDY    57  30  35 CALM      30.01F
OLIVE BRANCH   CLOUDY    48  32  53 S13G21    29.97F
OXFORD         FAIR      50  28  43 S8        30.02F
TUNICA         CLOUDY    50  37  62 S12G20    29.97F
$$

MSZ003>006-009-014>017-022>024-029>033-037>039-262000-
NORTHEAST MISSISSIPPI

CITY           SKY/WX    TMP DP  RH WIND       PRES   REMARKS
COLUMBUS AFB   PTSUNNY   56  27  32 S10G17    30.08F
CORINTH        FAIR      50  28  43 SE9       30.03F
GOLDN TRIANGLE MOSUNNY   57  32  38 S12       30.08F
STARKVILLE     FAIR      59  30  33 S9        30.07F
TUPELO         CLOUDY    51  29  42 MISG      30.05F
$$

MSZ040-058-262000-
CENTRAL MISSISSIPPI

CITY           SKY/WX    TMP DP  RH WIND       PRES   REMARKS
JACKSON INTL   MOSUNNY   65  30  27 SW20G30   30.08F
JACKSON HAWKNS SUNNY     65  31  28 SW16G28   30.07F
MERIDIAN KEY   SUNNY     60  26  27 SW10      30.11F
MERIDIAN NAS   SUNNY     61  26  26 SW10      30.11F
RAYMOND        FAIR      66  63  88 SW17G23   30.06F
VICKSBURG      SUNNY     65  36  34 SW13G25   30.07F
$$

MSZ059>079-262000-
SOUTH MISSISSIPPI

CITY           SKY/WX    TMP DP  RH WIND       PRES   REMARKS
BROOKHAVEN     FAIR      64  34  32 SW16G24   30.14F
HATTIESBURG    SUNNY     64  30  27 SW13G21   30.17F
MCCOMB         SUNNY     64  34  32 SW17G25   30.15F
NATCHEZ        SUNNY     64  39  39 SW18G29   30.11F
PINE BELT      SUNNY     63  30  29 SW7G17    30.17F
$$

MSZ080>082-262000-
COASTAL MISSISSIPPI

CITY           SKY/WX    TMP DP  RH WIND       PRES   REMARKS
BAY ST LOUIS   SUNNY     63  21  20 W8        30.21F
BILOXI         SUNNY     56  32  39 S12       30.22F
PASCAGOULA     SUNNY     61  31  32 S8        30.20F
GULFPORT       SUNNY     57  33  40 VRB7      30.21F
$$



USA.gov is the U.S. government's official web portal to all federal, state and local government web resources and services.